Location: Plainartige
(45.6866°N, 1.7993°E)
Time: 07:40:39
(UTC+00:00)

USA 234 - Pass Details

Date: 03 March 2021
Orbit: 1102 x 1105 km, 123.0° (Epoch: 08 April)

Event Time Altitude Azimuth Distance (km) Brightness Sun altitude
Exits shadow 21:27:17 46° 337° (NNW) 1,450 4.0 -38.1°
Drops below altitude 10° 21:33:22 10° 268° (W) 2,961 6.0 -39.0°
Sets 21:35:56 0° 263° (W) 3,918 6.6 -39.3°
